Time,TemperatureF,DewpointF,PressureIn,WindDirection,WindDirectionDegrees,WindSpeedMPH,WindSpeedGustMPH,Humidity,HourlyPrecipIn,Conditions,Clouds,dailyrainin,SoftwareType,DateUTC
2013-06-28 00:01:00,61.0,50.7,-100.00,North,-999,0.0,0.0,69,0.00,,,-99.99,FreeWX-Wi 1.01,2013-06-28 04:01:00,
2013-06-28 00:11:00,61.0,50.7,-100.00,North,-999,0.0,0.0,69,0.00,,,-99.99,FreeWX-Wi 1.01,2013-06-28 04:11:00,
2013-06-28 00:21:00,61.0,50.7,-100.00,North,-999,0.0,0.0,69,0.00,,,-99.99,FreeWX-Wi 1.01,2013-06-28 04:21:00,
2013-06-28 00:31:00,60.8,50.5,-100.00,North,-999,0.0,0.0,69,0.00,,,-99.99,FreeWX-Wi 1.01,2013-06-28 04:31:00,
2013-06-28 00:41:00,60.8,50.9,-100.00,North,-999,0.0,0.0,70,0.00,,,-99.99,FreeWX-Wi 1.01,2013-06-28 04:41:00,
2013-06-28 00:51:00,60.8,50.9,-100.00,North,-999,0.0,0.0,70,0.00,,,-99.99,FreeWX-Wi 1.01,2013-06-28 04:51:00,
2013-06-28 01:01:00,60.6,51.1,-100.00,North,-999,0.0,0.0,71,0.00,,,-99.99,FreeWX-Wi 1.01,2013-06-28 05:01:00,
2013-06-28 01:11:00,60.6,51.1,-100.00,North,-999,0.0,0.0,71,0.00,,,-99.99,FreeWX-Wi 1.01,2013-06-28 05:11:00,
2013-06-28 01:21:00,60.6,51.6,-100.00,North,-999,0.0,0.0,72,0.00,,,-99.99,FreeWX-Wi 1.01,2013-06-28 05:21:00,
2013-06-28 01:31:00,60.6,51.6,-100.00,North,-999,0.0,0.0,72,0.00,,,-99.99,FreeWX-Wi 1.01,2013-06-28 05:31:00,
2013-06-28 01:41:00,60.6,51.6,-100.00,North,-999,0.0,0.0,72,0.00,,,-99.99,FreeWX-Wi 1.01,2013-06-28 05:41:00,
2013-06-28 01:51:00,60.4,51.8,-100.00,North,-999,0.0,0.0,73,0.00,,,-99.99,FreeWX-Wi 1.01,2013-06-28 05:51:00,
2013-06-28 02:01:00,60.4,51.8,-100.00,North,-999,0.0,0.0,73,0.00,,,-99.99,FreeWX-Wi 1.01,2013-06-28 06:01:00,
2013-06-28 02:11:00,60.4,51.8,-100.00,North,-999,0.0,0.0,73,0.00,,,-99.99,FreeWX-Wi 1.01,2013-06-28 06:11:00,
2013-06-28 02:21:00,60.3,52.0,-100.00,North,-999,0.0,0.0,74,0.00,,,-99.99,FreeWX-Wi 1.01,2013-06-28 06:21:00,
2013-06-28 02:31:00,60.3,52.0,-100.00,North,-999,0.0,0.0,74,0.00,,,-99.99,FreeWX-Wi 1.01,2013-06-28 06:31:00,
2013-06-28 02:41:00,59.9,51.3,-100.00,North,-999,0.0,0.0,73,0.00,,,-99.99,FreeWX-Wi 1.01,2013-06-28 06:41:00,
2013-06-28 02:51:00,59.5,50.9,-100.00,North,-999,0.0,0.0,73,0.00,,,-99.99,FreeWX-Wi 1.01,2013-06-28 06:51:00,
2013-06-28 03:01:00,59.0,50.4,-100.00,North,-999,0.0,0.0,73,0.00,,,-99.99,FreeWX-Wi 1.01,2013-06-28 07:01:00,
2013-06-28 03:11:00,58.8,50.2,-100.00,North,-999,0.0,0.0,73,0.00,,,-99.99,FreeWX-Wi 1.01,2013-06-28 07:11:00,
2013-06-28 03:21:00,58.6,50.0,-100.00,North,-999,0.0,0.0,73,0.00,,,-99.99,FreeWX-Wi 1.01,2013-06-28 07:21:00,
2013-06-28 03:31:00,58.5,50.2,-100.00,North,-999,0.0,0.0,74,0.00,,,-99.99,FreeWX-Wi 1.01,2013-06-28 07:31:00,
2013-06-28 03:41:00,58.5,50.2,-100.00,North,-999,0.0,0.0,74,0.00,,,-99.99,FreeWX-Wi 1.01,2013-06-28 07:41:00,
2013-06-28 03:51:00,58.5,50.2,-100.00,North,-999,0.0,0.0,74,0.00,,,-99.99,FreeWX-Wi 1.01,2013-06-28 07:51:00,
2013-06-28 04:01:00,58.5,50.5,-100.00,North,-999,0.0,0.0,75,0.00,,,-99.99,FreeWX-Wi 1.01,2013-06-28 08:01:00,
2013-06-28 04:11:00,58.5,50.5,-100.00,North,-999,0.0,0.0,75,0.00,,,-99.99,FreeWX-Wi 1.01,2013-06-28 08:11:00,
2013-06-28 04:21:00,58.5,50.5,-100.00,North,-999,0.0,0.0,75,0.00,,,-99.99,FreeWX-Wi 1.01,2013-06-28 08:21:00,
2013-06-28 04:31:00,58.6,51.1,-100.00,North,-999,0.0,0.0,76,0.00,,,-99.99,FreeWX-Wi 1.01,2013-06-28 08:31:00,
2013-06-28 04:41:00,58.6,51.4,-100.00,North,-999,0.0,0.0,77,0.00,,,-99.99,FreeWX-Wi 1.01,2013-06-28 08:41:00,
2013-06-28 04:51:00,58.8,51.6,-100.00,North,-999,0.0,0.0,77,0.00,,,-99.99,FreeWX-Wi 1.01,2013-06-28 08:51:00,
2013-06-28 05:01:00,58.8,52.0,-100.00,North,-999,0.0,0.0,78,0.00,,,-99.99,FreeWX-Wi 1.01,2013-06-28 09:01:00,
2013-06-28 05:11:00,59.0,52.2,-100.00,North,-999,0.0,0.0,78,0.00,,,-99.99,FreeWX-Wi 1.01,2013-06-28 09:11:00,
2013-06-28 05:21:00,59.0,52.2,-100.00,North,-999,0.0,0.0,78,0.00,,,-99.99,FreeWX-Wi 1.01,2013-06-28 09:21:00,
2013-06-28 05:31:00,59.0,52.2,-100.00,North,-999,0.0,0.0,78,0.00,,,-99.99,FreeWX-Wi 1.01,2013-06-28 09:31:00,
2013-06-28 05:41:00,59.0,52.5,-100.00,North,-999,0.0,0.0,79,0.00,,,-99.99,FreeWX-Wi 1.01,2013-06-28 09:41:00,
2013-06-28 05:51:00,59.0,52.2,-100.00,North,-999,0.0,0.0,78,0.00,,,-99.99,FreeWX-Wi 1.01,2013-06-28 09:51:00,
2013-06-28 06:01:00,59.0,52.5,-100.00,North,-999,0.0,0.0,79,0.00,,,-99.99,FreeWX-Wi 1.01,2013-06-28 10:01:00,
2013-06-28 06:11:00,59.2,53.1,-100.00,North,-999,0.0,0.0,80,0.00,,,-99.99,FreeWX-Wi 1.01,2013-06-28 10:11:00,
2013-06-28 06:21:00,59.2,53.1,-100.00,North,-999,0.0,0.0,80,0.00,,,-99.99,FreeWX-Wi 1.01,2013-06-28 10:21:00,
2013-06-28 06:31:00,59.4,53.6,-100.00,North,-999,0.0,0.0,81,0.00,,,-99.99,FreeWX-Wi 1.01,2013-06-28 10:31:00,
2013-06-28 06:41:00,59.4,53.6,-100.00,North,-999,0.0,0.0,81,0.00,,,-99.99,FreeWX-Wi 1.01,2013-06-28 10:41:00,
2013-06-28 06:51:00,59.5,53.8,-100.00,North,-999,0.0,0.0,81,0.00,,,-99.99,FreeWX-Wi 1.01,2013-06-28 10:51:00,
2013-06-28 07:01:00,59.7,54.1,-100.00,North,-999,0.0,0.0,82,0.00,,,-99.99,FreeWX-Wi 1.01,2013-06-28 11:01:00,
2013-06-28 07:11:00,60.1,54.5,-100.00,North,-999,0.0,0.0,82,0.00,,,-99.99,FreeWX-Wi 1.01,2013-06-28 11:11:00,
2013-06-28 07:21:00,60.3,54.7,-100.00,North,-999,0.0,0.0,82,0.00,,,-99.99,FreeWX-Wi 1.01,2013-06-28 11:21:00,
2013-06-28 07:31:00,60.4,54.9,-100.00,North,-999,0.0,0.0,82,0.00,,,-99.99,FreeWX-Wi 1.01,2013-06-28 11:31:00,
2013-06-28 07:41:00,60.8,55.2,-100.00,North,-999,0.0,0.0,82,0.00,,,-99.99,FreeWX-Wi 1.01,2013-06-28 11:41:00,
2013-06-28 07:51:00,61.0,55.8,-100.00,North,-999,0.0,0.0,83,0.00,,,-99.99,FreeWX-Wi 1.01,2013-06-28 11:51:00,
2013-06-28 08:01:00,61.3,56.1,-100.00,North,-999,0.0,0.0,83,0.00,,,-99.99,FreeWX-Wi 1.01,2013-06-28 12:01:00,
2013-06-28 08:11:00,61.9,57.0,-100.00,North,-999,0.0,0.0,84,0.00,,,-99.99,FreeWX-Wi 1.01,2013-06-28 12:11:00,
2013-06-28 08:21:00,62.2,57.4,-100.00,North,-999,0.0,0.0,84,0.00,,,-99.99,FreeWX-Wi 1.01,2013-06-28 12:21:00,
2013-06-28 08:31:00,62.6,57.7,-100.00,North,-999,0.0,0.0,84,0.00,,,-99.99,FreeWX-Wi 1.01,2013-06-28 12:31:00,
2013-06-28 08:41:00,63.0,58.1,-100.00,North,-999,0.0,0.0,84,0.00,,,-99.99,FreeWX-Wi 1.01,2013-06-28 12:41:00,
2013-06-28 08:51:00,63.1,58.3,-100.00,North,-999,0.0,0.0,84,0.00,,,-99.99,FreeWX-Wi 1.01,2013-06-28 12:51:00,
2013-06-28 09:01:00,63.5,58.6,-100.00,North,-999,0.0,0.0,84,0.00,,,-99.99,FreeWX-Wi 1.01,2013-06-28 13:01:00,
2013-06-28 09:11:00,64.0,59.4,-100.00,North,-999,0.0,0.0,85,0.00,,,-99.99,FreeWX-Wi 1.01,2013-06-28 13:11:00,
2013-06-28 09:21:00,64.8,60.1,-100.00,North,-999,0.0,0.0,85,0.00,,,-99.99,FreeWX-Wi 1.01,2013-06-28 13:21:00,
2013-06-28 09:31:00,65.3,60.6,-100.00,North,-999,0.0,0.0,85,0.00,,,-99.99,FreeWX-Wi 1.01,2013-06-28 13:31:00,
2013-06-28 09:41:00,65.7,61.0,-100.00,North,-999,0.0,0.0,85,0.00,,,-99.99,FreeWX-Wi 1.01,2013-06-28 13:41:00,
2013-06-28 09:51:00,66.2,61.5,-100.00,North,-999,0.0,0.0,85,0.00,,,-99.99,FreeWX-Wi 1.01,2013-06-28 13:51:00,
2013-06-28 10:01:00,66.6,61.9,-100.00,North,-999,0.0,0.0,85,0.00,,,-99.99,FreeWX-Wi 1.01,2013-06-28 14:01:00,
2013-06-28 10:11:00,66.9,62.2,-100.00,North,-999,0.0,0.0,85,0.00,,,-99.99,FreeWX-Wi 1.01,2013-06-28 14:11:00,
2013-06-28 10:21:00,67.1,62.4,-100.00,North,-999,0.0,0.0,85,0.00,,,-99.99,FreeWX-Wi 1.01,2013-06-28 14:21:00,
2013-06-28 10:31:00,67.5,62.8,-100.00,North,-999,0.0,0.0,85,0.00,,,-99.99,FreeWX-Wi 1.01,2013-06-28 14:31:00,
2013-06-28 10:41:00,67.5,63.1,-100.00,North,-999,0.0,0.0,86,0.00,,,-99.99,FreeWX-Wi 1.01,2013-06-28 14:41:00,
2013-06-28 10:51:00,67.6,63.3,-100.00,North,-999,0.0,0.0,86,0.00,,,-99.99,FreeWX-Wi 1.01,2013-06-28 14:51:00,
2013-06-28 11:01:00,67.8,63.5,-100.00,North,-999,0.0,0.0,86,0.00,,,-99.99,FreeWX-Wi 1.01,2013-06-28 15:01:00,
2013-06-28 11:11:00,68.2,63.9,-100.00,North,-999,0.0,0.0,86,0.00,,,-99.99,FreeWX-Wi 1.01,2013-06-28 15:11:00,
2013-06-28 11:21:00,68.5,64.6,-100.00,North,-999,0.0,0.0,87,0.00,,,-99.99,FreeWX-Wi 1.01,2013-06-28 15:21:00,
2013-06-28 11:31:00,68.9,64.6,-100.00,North,-999,0.0,0.0,86,0.00,,,-99.99,FreeWX-Wi 1.01,2013-06-28 15:31:00,
2013-06-28 11:41:00,69.1,64.8,-100.00,North,-999,0.0,0.0,86,0.00,,,-99.99,FreeWX-Wi 1.01,2013-06-28 15:41:00,
2013-06-28 11:51:00,70.0,66.2,-100.00,North,-999,0.0,0.0,88,0.00,,,-99.99,FreeWX-Wi 1.01,2013-06-28 15:51:00,
2013-06-28 12:01:00,70.5,66.2,-100.00,North,-999,0.0,0.0,86,0.00,,,-99.99,FreeWX-Wi 1.01,2013-06-28 16:01:00,
2013-06-28 12:12:00,71.2,66.7,-100.00,North,-999,0.0,0.0,86,0.00,,,-99.99,FreeWX-Wi 1.01,2013-06-28 16:12:00,
2013-06-28 12:22:00,72.0,66.9,-100.00,North,-999,0.0,0.0,84,0.00,,,-99.99,FreeWX-Wi 1.01,2013-06-28 16:22:00,
2013-06-28 12:32:00,72.7,66.9,-100.00,North,-999,0.0,0.0,82,0.00,,,-99.99,FreeWX-Wi 1.01,2013-06-28 16:32:00,
2013-06-28 12:42:00,73.4,65.7,-100.00,North,-999,0.0,0.0,77,0.00,,,-99.99,FreeWX-Wi 1.01,2013-06-28 16:42:00,
2013-06-28 12:52:00,74.1,63.3,-100.00,North,-999,0.0,0.0,69,0.00,,,-99.99,FreeWX-Wi 1.01,2013-06-28 16:52:00,
2013-06-28 13:02:00,74.3,59.5,-100.00,North,-999,0.0,0.0,60,0.00,,,-99.99,FreeWX-Wi 1.01,2013-06-28 17:02:00,
2013-06-28 13:12:00,74.1,58.5,-100.00,North,-999,0.0,0.0,58,0.00,,,-99.99,FreeWX-Wi 1.01,2013-06-28 17:12:00,
2013-06-28 13:22:00,75.0,58.3,-100.00,North,-999,0.0,0.0,56,0.00,,,-99.99,FreeWX-Wi 1.01,2013-06-28 17:22:00,
2013-06-28 13:32:00,75.6,56.7,-100.00,North,-999,0.0,0.0,52,0.00,,,-99.99,FreeWX-Wi 1.01,2013-06-28 17:32:00,
2013-06-28 13:42:00,75.6,55.6,-100.00,North,-999,0.0,0.0,50,0.00,,,-99.99,FreeWX-Wi 1.01,2013-06-28 17:42:00,
2013-06-28 13:52:00,75.9,54.9,-100.00,North,-999,0.0,0.0,48,0.00,,,-99.99,FreeWX-Wi 1.01,2013-06-28 17:52:00,
2013-06-28 14:02:00,76.1,54.3,-100.00,North,-999,0.0,0.0,47,0.00,,,-99.99,FreeWX-Wi 1.01,2013-06-28 18:02:00,
2013-06-28 14:12:00,75.7,53.4,-100.00,North,-999,0.0,0.0,46,0.00,,,-99.99,FreeWX-Wi 1.01,2013-06-28 18:12:00,
2013-06-28 14:22:00,76.5,54.1,-100.00,North,-999,0.0,0.0,46,0.00,,,-99.99,FreeWX-Wi 1.01,2013-06-28 18:22:00,
2013-06-28 14:32:00,76.8,53.8,-100.00,North,-999,0.0,0.0,45,0.00,,,-99.99,FreeWX-Wi 1.01,2013-06-28 18:32:00,
2013-06-28 14:42:00,76.8,53.8,-100.00,North,-999,0.0,0.0,45,0.00,,,-99.99,FreeWX-Wi 1.01,2013-06-28 18:42:00,
2013-06-28 14:52:00,77.2,53.6,-100.00,North,-999,0.0,0.0,44,0.00,,,-99.99,FreeWX-Wi 1.01,2013-06-28 18:52:00,
2013-06-28 15:02:00,77.2,53.6,-100.00,North,-999,0.0,0.0,44,0.00,,,-99.99,FreeWX-Wi 1.01,2013-06-28 19:02:00,
2013-06-28 15:12:00,77.2,53.6,-100.00,North,-999,0.0,0.0,44,0.00,,,-99.99,FreeWX-Wi 1.01,2013-06-28 19:12:00,
2013-06-28 15:22:00,77.0,50.7,-100.00,North,-999,0.0,0.0,40,0.00,,,-99.99,FreeWX-Wi 1.01,2013-06-28 19:22:00,
2013-06-28 15:32:00,76.8,50.0,-100.00,North,-999,0.0,0.0,39,0.00,,,-99.99,FreeWX-Wi 1.01,2013-06-28 19:32:00,
2013-06-28 15:42:00,77.2,48.9,-100.00,North,-999,0.0,0.0,37,0.00,,,-99.99,FreeWX-Wi 1.01,2013-06-28 19:42:00,
2013-06-28 15:52:00,77.2,48.9,-100.00,North,-999,0.0,0.0,37,0.00,,,-99.99,FreeWX-Wi 1.01,2013-06-28 19:52:00,
2013-06-28 16:02:00,77.0,48.0,-100.00,North,-999,0.0,0.0,36,0.00,,,-99.99,FreeWX-Wi 1.01,2013-06-28 20:02:00,
2013-06-28 16:12:00,76.8,48.6,-100.00,North,-999,0.0,0.0,37,0.00,,,-99.99,FreeWX-Wi 1.01,2013-06-28 20:12:00,
2013-06-28 16:22:00,77.0,48.0,-100.00,North,-999,0.0,0.0,36,0.00,,,-99.99,FreeWX-Wi 1.01,2013-06-28 20:22:00,
2013-06-28 16:32:00,76.6,47.7,-100.00,North,-999,0.0,0.0,36,0.00,,,-99.99,FreeWX-Wi 1.01,2013-06-28 20:32:00,
2013-06-28 16:42:00,76.5,48.2,-100.00,North,-999,0.0,0.0,37,0.00,,,-99.99,FreeWX-Wi 1.01,2013-06-28 20:42:00,
2013-06-28 16:52:00,76.1,47.8,-100.00,North,-999,0.0,0.0,37,0.00,,,-99.99,FreeWX-Wi 1.01,2013-06-28 20:52:00,
2013-06-28 17:02:00,75.9,47.8,-100.00,North,-999,0.0,0.0,37,0.00,,,-99.99,FreeWX-Wi 1.01,2013-06-28 21:02:00,
2013-06-28 17:12:00,75.9,48.4,-100.00,North,-999,0.0,0.0,38,0.00,,,-99.99,FreeWX-Wi 1.01,2013-06-28 21:12:00,
2013-06-28 17:22:00,75.7,48.4,-100.00,North,-999,0.0,0.0,38,0.00,,,-99.99,FreeWX-Wi 1.01,2013-06-28 21:22:00,
2013-06-28 17:32:00,75.6,48.2,-100.00,North,-999,0.0,0.0,38,0.00,,,-99.99,FreeWX-Wi 1.01,2013-06-28 21:32:00,
2013-06-28 17:42:00,75.4,48.0,-100.00,North,-999,0.0,0.0,38,0.00,,,-99.99,FreeWX-Wi 1.01,2013-06-28 21:42:00,
2013-06-28 17:53:00,75.2,47.8,-100.00,North,-999,0.0,0.0,38,0.00,,,-99.99,FreeWX-Wi 1.01,2013-06-28 21:53:00,
2013-06-28 18:03:00,74.8,48.2,-100.00,North,-999,0.0,0.0,39,0.00,,,-99.99,FreeWX-Wi 1.01,2013-06-28 22:03:00,
2013-06-28 18:13:00,74.5,47.8,-100.00,North,-999,0.0,0.0,39,0.00,,,-99.99,FreeWX-Wi 1.01,2013-06-28 22:13:00,
2013-06-28 18:23:00,74.3,47.7,-100.00,North,-999,0.0,0.0,39,0.00,,,-99.99,FreeWX-Wi 1.01,2013-06-28 22:23:00,
2013-06-28 18:33:00,74.1,48.2,-100.00,North,-999,0.0,0.0,40,0.00,,,-99.99,FreeWX-Wi 1.01,2013-06-28 22:33:00,
2013-06-28 18:43:00,73.9,48.0,-100.00,North,-999,0.0,0.0,40,0.00,,,-99.99,FreeWX-Wi 1.01,2013-06-28 22:43:00,
2013-06-28 18:53:00,73.8,48.6,-100.00,North,-999,0.0,0.0,41,0.00,,,-99.99,FreeWX-Wi 1.01,2013-06-28 22:53:00,
2013-06-28 19:03:00,73.6,49.1,-100.00,North,-999,0.0,0.0,42,0.00,,,-99.99,FreeWX-Wi 1.01,2013-06-28 23:03:00,
2013-06-28 19:13:00,73.2,50.0,-100.00,North,-999,0.0,0.0,44,0.00,,,-99.99,FreeWX-Wi 1.01,2013-06-28 23:13:00,
2013-06-28 19:23:00,72.9,50.2,-100.00,North,-999,0.0,0.0,45,0.00,,,-99.99,FreeWX-Wi 1.01,2013-06-28 23:23:00,
2013-06-28 19:33:00,72.3,50.4,-100.00,North,-999,0.0,0.0,46,0.00,,,-99.99,FreeWX-Wi 1.01,2013-06-28 23:33:00,
2013-06-28 19:43:00,71.8,49.8,-100.00,North,-999,0.0,0.0,46,0.00,,,-99.99,FreeWX-Wi 1.01,2013-06-28 23:43:00,
2013-06-28 19:53:00,71.6,50.4,-100.00,North,-999,0.0,0.0,47,0.00,,,-99.99,FreeWX-Wi 1.01,2013-06-28 23:53:00,
2013-06-28 20:03:00,71.2,50.0,-100.00,North,-999,0.0,0.0,47,0.00,,,-99.99,FreeWX-Wi 1.01,2013-06-29 00:03:00,
2013-06-28 20:13:00,70.9,50.2,-100.00,North,-999,0.0,0.0,48,0.00,,,-99.99,FreeWX-Wi 1.01,2013-06-29 00:13:00,
2013-06-28 20:23:00,70.7,50.0,-100.00,North,-999,0.0,0.0,48,0.00,,,-99.99,FreeWX-Wi 1.01,2013-06-29 00:23:00,
2013-06-28 20:33:00,70.3,50.2,-100.00,North,-999,0.0,0.0,49,0.00,,,-99.99,FreeWX-Wi 1.01,2013-06-29 00:33:00,
2013-06-28 20:43:00,69.8,50.4,-100.00,North,-999,0.0,0.0,50,0.00,,,-99.99,FreeWX-Wi 1.01,2013-06-29 00:43:00,
2013-06-28 20:53:00,69.4,50.5,-100.00,North,-999,0.0,0.0,51,0.00,,,-99.99,FreeWX-Wi 1.01,2013-06-29 00:53:00,
2013-06-28 21:03:00,69.3,50.4,-100.00,North,-999,0.0,0.0,51,0.00,,,-99.99,FreeWX-Wi 1.01,2013-06-29 01:03:00,
2013-06-28 21:13:00,68.9,50.0,-100.00,North,-999,0.0,0.0,51,0.00,,,-99.99,FreeWX-Wi 1.01,2013-06-29 01:13:00,
2013-06-28 21:23:00,68.7,50.4,-100.00,North,-999,0.0,0.0,52,0.00,,,-99.99,FreeWX-Wi 1.01,2013-06-29 01:23:00,
2013-06-28 21:33:00,68.5,50.2,-100.00,North,-999,0.0,0.0,52,0.00,,,-99.99,FreeWX-Wi 1.01,2013-06-29 01:33:00,
2013-06-28 21:43:00,68.2,50.4,-100.00,North,-999,0.0,0.0,53,0.00,,,-99.99,FreeWX-Wi 1.01,2013-06-29 01:43:00,
2013-06-28 21:53:00,68.0,50.2,-100.00,North,-999,0.0,0.0,53,0.00,,,-99.99,FreeWX-Wi 1.01,2013-06-29 01:53:00,
2013-06-28 22:03:00,67.8,50.5,-100.00,North,-999,0.0,0.0,54,0.00,,,-99.99,FreeWX-Wi 1.01,2013-06-29 02:03:00,
2013-06-28 22:13:00,67.6,50.4,-100.00,North,-999,0.0,0.0,54,0.00,,,-99.99,FreeWX-Wi 1.01,2013-06-29 02:13:00,
2013-06-28 22:23:00,67.6,50.9,-100.00,North,-999,0.0,0.0,55,0.00,,,-99.99,FreeWX-Wi 1.01,2013-06-29 02:23:00,
2013-06-28 22:33:00,67.5,50.7,-100.00,North,-999,0.0,0.0,55,0.00,,,-99.99,FreeWX-Wi 1.01,2013-06-29 02:33:00,
2013-06-28 22:43:00,67.5,51.3,-100.00,North,-999,0.0,0.0,56,0.00,,,-99.99,FreeWX-Wi 1.01,2013-06-29 02:43:00,
2013-06-28 22:53:00,67.5,51.3,-100.00,North,-999,0.0,0.0,56,0.00,,,-99.99,FreeWX-Wi 1.01,2013-06-29 02:53:00,
2013-06-28 23:03:00,67.3,51.1,-100.00,North,-999,0.0,0.0,56,0.00,,,-99.99,FreeWX-Wi 1.01,2013-06-29 03:03:00,
2013-06-28 23:13:00,67.3,51.1,-100.00,North,-999,0.0,0.0,56,0.00,,,-99.99,FreeWX-Wi 1.01,2013-06-29 03:13:00,
2013-06-28 23:23:00,67.1,50.9,-100.00,North,-999,0.0,0.0,56,0.00,,,-99.99,FreeWX-Wi 1.01,2013-06-29 03:23:00,
2013-06-28 23:33:00,67.1,50.9,-100.00,North,-999,0.0,0.0,56,0.00,,,-99.99,FreeWX-Wi 1.01,2013-06-29 03:33:00,
2013-06-28 23:43:00,67.1,50.9,-100.00,North,-999,0.0,0.0,56,0.00,,,-99.99,FreeWX-Wi 1.01,2013-06-29 03:43:00,
2013-06-28 23:53:00,67.1,50.9,-100.00,North,-999,0.0,0.0,56,0.00,,,-99.99,FreeWX-Wi 1.01,2013-06-29 03:53:00,